• In Hungary
  • List of Countries
  • For 7 days
  • Water Temperature
  • Satellite Maps
  • Weather Map
  • News
  • Weather Widgets
  • user-avatar
    Login

    Hourly Weather Stanislavchyk

    Today, 22 October, Sunday

    Time Temperature Precipitation Wind Pressure Humidity
    00:00 +9°C° 0 mm 3 mps 743 mmHg 93%
    01:00 +9°C° 0 mm 3 mps 743 mmHg 93%
    02:00 +9°C° 0 mm 2 mps 743 mmHg 94%
    03:00 +9°C° 0 mm 2 mps 743 mmHg 93%
    04:00 +9°C° 0 mm 2 mps 743 mmHg 91%
    05:00 +9°C° 0 mm 3 mps 743 mmHg 90%
    06:00 +9°C° 0 mm 3 mps 744 mmHg 88%
    07:00 +9°C° 0 mm 3 mps 744 mmHg 87%
    08:00 +8°C° 0 mm 3 mps 744 mmHg 85%
    09:00 +9°C° 0 mm 3 mps 744 mmHg 82%
    10:00 +9°C° 0 mm 3 mps 744 mmHg 79%
    11:00 +9°C° 0 mm 3 mps 745 mmHg 77%
    12:00 +10°C° 0 mm 3 mps 744 mmHg 75%
    13:00 +10°C° 0 mm 3 mps 744 mmHg 74%
    14:00 +10°C° 0 mm 3 mps 744 mmHg 73%
    15:00 +10°C° 0 mm 3 mps 744 mmHg 74%
    16:00 +10°C° 0 mm 3 mps 744 mmHg 75%
    17:00 +9°C° 0 mm 3 mps 743 mmHg 76%
    18:00 +9°C° 0 mm 3 mps 743 mmHg 78%
    19:00 +7°C° 0 mm 4 mps 743 mmHg 80%
    20:00 +6°C° 0 mm 4 mps 743 mmHg 81%
    21:00 +6°C° 0 mm 4 mps 743 mmHg 81%
    22:00 +7°C° 0 mm 4 mps 743 mmHg 80%
    23:00 +7°C° 0 mm 5 mps 743 mmHg 80%

    Tomorrow, 23 October, Monday

    Time Temperature Precipitation Wind Pressure Humidity
    00:00 +6°C° 0 mm 4 mps 742 mmHg 80%
    01:00 +6°C° 0 mm 4 mps 742 mmHg 81%
    02:00 +6°C° 0 mm 4 mps 742 mmHg 82%
    03:00 +6°C° 0 mm 4 mps 742 mmHg 82%
    04:00 +6°C° 0 mm 4 mps 741 mmHg 82%
    05:00 +5°C° 0 mm 4 mps 741 mmHg 82%
    06:00 +5°C° 0.1 mm 4 mps 741 mmHg 82%
    07:00 +6°C° 0.1 mm 5 mps 741 mmHg 82%
    08:00 +6°C° 0.1 mm 5 mps 740 mmHg 82%
    09:00 +6°C° 0.1 mm 5 mps 740 mmHg 80%
    10:00 +6°C° 0.1 mm 5 mps 740 mmHg 78%
    11:00 +7°C° 0.1 mm 5 mps 740 mmHg 76%
    12:00 +7°C° 0.1 mm 5 mps 740 mmHg 76%
    13:00 +8°C° 0.1 mm 5 mps 740 mmHg 75%
    14:00 +8°C° 0.1 mm 5 mps 740 mmHg 75%
    15:00 +8°C° 0.2 mm 5 mps 740 mmHg 76%
    16:00 +8°C° 0.2 mm 5 mps 740 mmHg 77%
    17:00 +7°C° 0.2 mm 5 mps 740 mmHg 79%
    18:00 +7°C° 0.5 mm 5 mps 740 mmHg 79%
    19:00 +7°C° 0.5 mm 5 mps 741 mmHg 80%
    20:00 +7°C° 0.5 mm 6 mps 741 mmHg 81%
    21:00 +6°C° 0.9 mm 5 mps 741 mmHg 81%
    22:00 +6°C° 0.9 mm 5 mps 742 mmHg 82%
    23:00 +5°C° 0.9 mm 5 mps 742 mmHg 82%

    Day after tomorrow, 24 October, Tuesday

    Time Temperature Precipitation Wind Pressure Humidity
    00:00 +5°C° 0.6 mm 5 mps 742 mmHg 82%
    01:00 +5°C° 0.6 mm 5 mps 743 mmHg 83%
    02:00 +5°C° 0.6 mm 5 mps 743 mmHg 83%
    03:00 +5°C° 0.2 mm 5 mps 743 mmHg 82%
    04:00 +3°C° 0.2 mm 5 mps 744 mmHg 82%
    05:00 +3°C° 0.2 mm 5 mps 744 mmHg 82%
    06:00 +3°C° 0.1 mm 5 mps 745 mmHg 81%
    07:00 +3°C° 0.1 mm 5 mps 745 mmHg 81%
    08:00 +3°C° 0.1 mm 5 mps 746 mmHg 80%
    09:00 +4°C° 0 mm 4 mps 747 mmHg 78%
    10:00 +5°C° 0 mm 4 mps 747 mmHg 75%
    11:00 +5°C° 0 mm 4 mps 748 mmHg 72%
    12:00 +6°C° 0 mm 4 mps 748 mmHg 70%
    13:00 +6°C° 0 mm 4 mps 748 mmHg 67%
    14:00 +7°C° 0 mm 4 mps 749 mmHg 65%
    15:00 +7°C° 0 mm 3 mps 749 mmHg 67%
    16:00 +7°C° 0 mm 3 mps 749 mmHg 69%
    17:00 +6°C° 0 mm 2 mps 749 mmHg 71%
    18:00 +5°C° 0 mm 2 mps 750 mmHg 73%
    19:00 +5°C° 0 mm 2 mps 750 mmHg 75%
    20:00 +4°C° 0 mm 2 mps 751 mmHg 77%
    21:00 +3°C° 0 mm 2 mps 751 mmHg 78%
    22:00 +3°C° 0 mm 2 mps 751 mmHg 79%
    23:00 +4°C° 0 mm 1 mps 751 mmHg 80%

    25 October, Wednesday

    Time Temperature Precipitation Wind Pressure Humidity
    00:00 +3°C° 0 mm 1 mps 751 mmHg 81%
    01:00 +3°C° 0 mm 1 mps 752 mmHg 82%
    02:00 +3°C° 0 mm 1 mps 752 mmHg 82%
    03:00 +3°C° 0 mm 1 mps 752 mmHg 83%
    04:00 +2°C° 0 mm 1 mps 752 mmHg 83%
    05:00 +2°C° 0 mm 1 mps 752 mmHg 83%
    06:00 +2°C° 0 mm 1 mps 752 mmHg 82%
    07:00 +2°C° 0 mm 1 mps 752 mmHg 81%
    08:00 +3°C° 0 mm 1 mps 752 mmHg 80%
    09:00 +3°C° 0 mm 2 mps 752 mmHg 73%
    10:00 +5°C° 0 mm 2 mps 753 mmHg 65%
    11:00 +6°C° 0 mm 2 mps 753 mmHg 58%
    12:00 +7°C° 0 mm 2 mps 752 mmHg 56%
    13:00 +8°C° 0 mm 2 mps 752 mmHg 53%
    14:00 +9°C° 0 mm 2 mps 752 mmHg 50%
    15:00 +8°C° 0 mm 2 mps 752 mmHg 54%
    16:00 +7°C° 0 mm 2 mps 751 mmHg 59%
    17:00 +6°C° 0 mm 2 mps 751 mmHg 63%
    18:00 +6°C° 0 mm 2 mps 751 mmHg 65%
    19:00 +4°C° 0 mm 3 mps 751 mmHg 68%
    20:00 +4°C° 0 mm 3 mps 751 mmHg 70%
    21:00 +4°C° 0 mm 3 mps 751 mmHg 69%
    22:00 +5°C° 0 mm 4 mps 750 mmHg 69%
    23:00 +5°C° 0 mm 4 mps 750 mmHg 68%

    26 October, Thursday

    Time Temperature Precipitation Wind Pressure Humidity
    00:00 +5°C° 0 mm 4 mps 750 mmHg 69%
    01:00 +6°C° 0 mm 5 mps 749 mmHg 71%
    02:00 +6°C° 0 mm 5 mps 749 mmHg 73%
    03:00 +6°C° 0.3 mm 5 mps 748 mmHg 74%
    04:00 +7°C° 0.3 mm 5 mps 747 mmHg 76%
    05:00 +7°C° 0.3 mm 6 mps 747 mmHg 78%
    06:00 +8°C° 0.2 mm 6 mps 746 mmHg 79%
    07:00 +8°C° 0.2 mm 6 mps 746 mmHg 81%
    08:00 +9°C° 0.2 mm 6 mps 746 mmHg 82%
    09:00 +10°C° 0.2 mm 6 mps 746 mmHg 82%
    10:00 +10°C° 0.2 mm 6 mps 746 mmHg 83%
    11:00 +11°C° 0.2 mm 7 mps 747 mmHg 83%
    12:00 +11°C° 0.1 mm 7 mps 746 mmHg 78%
    13:00 +12°C° 0.1 mm 7 mps 746 mmHg 74%
    14:00 +12°C° 0.1 mm 7 mps 746 mmHg 69%
    15:00 +11°C° 0.1 mm 6 mps 746 mmHg 72%
    16:00 +12°C° 0.1 mm 5 mps 746 mmHg 75%
    17:00 +11°C° 0.1 mm 4 mps 746 mmHg 78%
    18:00 +10°C° 0 mm 4 mps 746 mmHg 80%
    19:00 +10°C° 0 mm 4 mps 746 mmHg 83%
    20:00 +8°C° 0 mm 4 mps 746 mmHg 85%
    21:00 +8°C° 0 mm 4 mps 746 mmHg 85%
    22:00 +8°C° 0 mm 4 mps 745 mmHg 84%
    23:00 +8°C° 0 mm 4 mps 745 mmHg 84%

    27 October, Friday

    Time Temperature Precipitation Wind Pressure Humidity
    00:00 +8°C° 0 mm 5 mps 745 mmHg 84%
    01:00 +8°C° 0 mm 5 mps 745 mmHg 85%
    02:00 +8°C° 0 mm 5 mps 744 mmHg 85%
    03:00 +8°C° 0 mm 5 mps 744 mmHg 85%
    04:00 +8°C° 0 mm 5 mps 744 mmHg 85%
    05:00 +8°C° 0 mm 5 mps 743 mmHg 84%
    06:00 +8°C° 0 mm 5 mps 743 mmHg 85%
    07:00 +8°C° 0 mm 5 mps 743 mmHg 86%
    08:00 +8°C° 0 mm 5 mps 742 mmHg 86%
    09:00 +9°C° 0.1 mm 6 mps 742 mmHg 82%
    10:00 +10°C° 0.1 mm 6 mps 742 mmHg 78%
    11:00 +11°C° 0.1 mm 7 mps 742 mmHg 74%
    12:00 +11°C° 0.1 mm 7 mps 741 mmHg 73%
    13:00 +11°C° 0.1 mm 7 mps 741 mmHg 72%
    14:00 +11°C° 0.1 mm 6 mps 740 mmHg 71%
    15:00 +10°C° 0.1 mm 5 mps 739 mmHg 74%
    16:00 +11°C° 0.1 mm 4 mps 739 mmHg 76%
    17:00 +10°C° 0.1 mm 3 mps 738 mmHg 78%
    18:00 +10°C° 0.1 mm 3 mps 738 mmHg 81%
    19:00 +10°C° 0.1 mm 3 mps 737 mmHg 84%
    20:00 +10°C° 0.1 mm 3 mps 736 mmHg 87%
    21:00 +10°C° 0.2 mm 4 mps 735 mmHg 86%
    22:00 +9°C° 0.2 mm 5 mps 734 mmHg 84%
    23:00 +9°C° 0.2 mm 6 mps 732 mmHg 83%
    Show more